GFSGL_850_temp_057.txt.gz
Temp
24 24 23 24 25 24 22 23 23 22 22 22 22 22 22 22 22 21 21 20 20 20 20 21 22 22 21 21 21 21 21 21 21 21 21 20 20 20 20 19 19 19 19
25 24 23 23 23 24 23 23 23 23 23 21 21 22 21 21 21 21 21 21 21 20 21 21 21 22 22 21 21 22 21 21 21 22 21 20 20 20 20 19 19 18 18
25 24 24 24 23 23 24 24 24 24 24 23 22 22 21 21 21 21 22 22 22 21 21 21 22 21 22 22 21 21 22 22 21 21 21 20 20 19 19 19 19 18 18
25 25 25 24 24 24 24 26 25 24 24 24 24 23 22 22 22 22 22 22 22 22 22 22 22 22 22 23 22 22 21 21 21 21 20 20 19 19 19 19 19 18 18
26 26 25 25 25 25 25 25 25 25 24 24 24 24 23 22 22 22 22 23 22 23 23 22 22 23 23 23 22 22 22 21 21 20 20 19 19 19 19 19 19 19 18
26 26 26 26 25 25 24 24 24 25 24 24 24 23 23 23 23 23 24 23 23 23 23 23 23 23 23 23 23 22 22 22 21 21 20 20 20 20 19 19 19 18 18
27 26 26 26 26 25 25 24 24 24 25 25 24 23 24 24 24 24 24 24 24 24 24 24 23 23 23 22 22 22 21 21 21 21 20 21 21 21 20 19 19 18 18
28 27 26 26 26 26 25 25 25 25 24 24 25 25 25 26 26 25 25 24 24 24 25 24 23 24 23 22 21 21 21 21 20 19 20 20 20 20 19 19 17 17 16
28 28 27 27 26 26 26 25 25 25 24 24 24 24 25 26 26 26 24 23 23 24 25 24 23 22 22 21 21 20 20 20 20 20 19 19 19 18 18 17 17 16 14
29 29 28 28 27 27 26 26 25 25 25 24 24 24 25 25 25 24 23 22 23 23 23 23 22 21 20 19 19 19 20 20 20 20 19 19 18 16 16 17 15 16 13
30 30 29 28 28 27 26 26 25 25 24 24 23 23 24 24 24 24 23 22 22 21 22 22 21 20 19 19 19 19 19 19 19 19 18 18 18 17 16 16 15 14 13
28 28 28 28 27 26 26 25 24 24 24 23 23 23 23 23 23 23 22 21 20 20 20 20 19 19 19 19 19 19 20 20 19 19 19 18 18 17 16 16 15 14 14
28 29 28 28 27 26 26 24 24 23 23 23 22 22 22 22 22 22 21 21 20 20 20 20 20 19 19 19 19 20 19 19 19 18 18 18 18 17 16 15 14 14 13
26 27 26 26 26 26 25 24 23 23 22 22 21 21 21 21 21 21 21 21 20 20 20 20 20 19 19 19 19 19 19 18 19 18 18 18 17 16 15 14 14 14 13
26 26 26 25 25 25 24 24 22 22 22 22 21 20 21 21 22 22 22 22 21 21 21 20 20 19 19 19 19 19 18 18 18 17 17 16 16 15 14 14 14 13 13
23 24 23 24 24 24 23 23 22 21 21 21 20 21 21 21 21 22 22 22 22 21 21 21 20 20 19 19 18 18 17 17 17 16 16 15 14 15 14 14 13 13 13
22 22 23 23 23 23 22 22 22 22 21 21 21 21 22 21 21 22 22 22 22 21 20 20 19 18 18 18 17 17 16 15 15 15 14 15 14 14 14 13 13 13 13
21 21 21 22 22 22 22 22 21 21 22 21 21 21 21 20 21 21 20 20 20 20 20 20 19 18 18 17 16 15 15 14 14 14 14 14 14 14 14 14 14 14 13
20 21 21 22 23 23 23 23 22 21 21 20 21 20 20 20 20 20 20 20 20 20 19 19 18 17 16 16 16 15 14 14 14 13 13 13 13 13 13 14 13 13 13
20 21 22 23 23 23 22 22 21 21 20 19 20 19 19 19 19 19 19 19 18 18 18 17 16 16 15 15 15 14 13 12 13 13 12 12 13 14 13 13 13 13 13
18 20 21 21 22 21 21 20 19 18 18 18 18 17 16 17 17 17 17 17 17 16 15 15 15 15 15 15 14 14 14 14 14 13 13 13 14 14 14 13 13 13 13
18 18 19 19 19 19 19 19 18 17 17 16 16 16 16 15 16 16 16 15 15 14 14 14 14 15 15 15 15 14 14 14 14 14 13 13 13 13 13 13 13 13 13
17 17 17 17 17 17 18 17 17 17 16 16 16 16 15 15 14 14 15 14 14 14 14 14 14 14 14 15 15 14 14 15 15 15 14 14 13 13 13 13 13 13 13
17 17 17 17 17 17 16 16 15 15 14 14 14 14 14 14 14 13 14 14 14 14 14 14 14 14 14 14 14 14 14 14 14 13 14 14 13 13 13 13 14 14 14
17 17 16 17 16 15 15 15 15 14 14 14 14 14 13 14 13 13 13 14 14 14 14 14 14 13 13 13 13 13 13 13 13 13 13 13 14 14 14 14 14 13 13
14 14 15 15 15 15 14 14 13 13 13 14 14 13 13 14 13 13 13 13 13 13 13 13 13 13 13 13 13 13 13 13 13 13 13 13 13 13 13 13 13 13 13

GFSGL_850_temp_060.txt.gz
Temp
23 23 23 22 22 22 22 22 22 21 21 21 21 21 21 21 21 21 20 20 20 21 21 21 22 22 22 21 21 21 21 20 21 21 21 21 21 20 20 20 19 19 19
24 24 23 23 22 22 22 23 23 22 22 21 21 21 21 21 22 21 21 21 20 21 21 22 23 22 22 22 21 22 21 21 21 21 21 21 20 20 20 20 19 19 19
24 24 24 23 23 23 23 23 23 23 23 22 21 21 21 21 22 21 21 21 21 22 22 22 23 22 22 22 22 22 22 21 20 20 21 21 20 20 20 20 19 19 19
25 25 25 24 24 23 24 24 24 24 23 23 22 22 21 21 21 21 21 22 22 22 22 22 22 22 22 22 22 22 21 22 21 20 20 20 20 20 19 19 19 19 19
26 26 26 25 25 25 25 25 25 24 24 24 23 23 22 21 21 21 21 22 22 22 22 22 22 23 23 23 22 22 21 21 21 20 20 20 20 20 20 20 19 19 18
27 27 27 26 26 25 25 25 26 25 25 25 24 24 24 23 23 22 22 22 22 22 22 23 23 23 22 22 22 22 22 21 21 20 20 20 20 20 20 19 19 18 18
27 27 27 26 26 26 26 25 25 26 26 25 25 25 24 24 24 24 23 22 22 22 22 23 23 23 23 23 23 23 22 22 21 20 20 20 20 20 20 19 19 19 19
27 27 27 27 27 26 26 25 25 25 25 25 25 25 25 25 25 24 23 23 22 23 23 23 23 23 23 23 22 22 22 21 21 20 20 21 20 20 20 19 19 18 19
27 27 28 28 27 27 26 26 26 25 25 25 25 25 25 25 25 24 23 22 22 23 23 23 23 22 22 21 21 21 21 20 20 20 20 20 19 19 19 17 17 17 17
29 29 28 28 27 27 27 26 27 26 26 25 25 25 25 25 24 24 23 23 23 23 23 23 23 22 21 20 19 19 19 19 19 20 20 19 19 19 18 18 17 15 15
27 27 28 27 27 27 27 26 26 26 25 25 25 25 25 24 24 24 23 22 23 22 23 23 22 22 21 20 19 19 19 19 19 19 19 19 18 18 18 19 17 15 14
26 26 27 27 27 27 27 26 26 25 25 25 24 24 24 24 23 23 23 22 22 21 21 21 21 21 20 19 19 19 19 19 18 19 18 19 19 18 19 19 18 16 15
26 27 27 27 28 27 27 26 25 25 24 24 24 24 24 23 23 23 22 21 21 20 20 21 20 20 20 19 19 19 19 19 18 18 18 18 19 18 17 16 15 14 14
26 26 27 27 28 27 26 26 26 25 24 24 23 23 23 23 22 21 21 21 21 20 20 21 20 20 20 19 19 19 19 19 18 18 18 18 17 17 16 15 14 14 14
24 24 25 25 26 26 25 26 25 25 24 24 23 23 22 22 22 21 21 21 21 21 21 20 20 20 20 19 19 19 19 18 18 18 17 17 16 16 15 14 14 14 14
21 22 22 23 24 24 24 24 25 25 24 23 22 22 21 21 21 21 21 21 21 21 20 21 21 20 20 19 19 18 18 18 17 17 16 15 16 16 15 15 14 13 13
21 21 21 21 22 22 22 23 23 24 23 22 21 21 20 21 21 21 21 21 21 21 21 21 21 20 20 20 18 18 18 18 16 16 14 14 15 14 14 14 14 13 13
21 20 20 21 21 21 21 22 22 22 22 22 21 21 21 21 21 21 21 21 21 21 21 20 20 20 19 18 18 18 17 16 16 15 15 15 15 15 14 13 14 13 13
21 20 20 21 21 21 21 21 22 22 22 21 21 21 21 21 21 21 20 20 20 20 20 19 19 19 19 18 17 16 16 15 15 15 14 14 14 14 13 14 13 13 13
20 20 19 20 21 20 21 21 21 21 21 21 21 21 20 20 19 19 19 19 19 19 19 18 18 18 17 17 16 16 15 15 14 13 13 13 13 13 13 14 13 13 13
19 18 18 20 20 21 21 21 21 21 20 21 21 20 18 18 18 17 18 18 18 18 18 18 17 17 16 16 16 15 15 15 14 13 13 12 13 13 13 12 13 13 13
18 17 18 19 21 21 22 21 21 20 19 19 18 18 17 16 16 16 16 16 17 17 16 15 15 15 16 16 16 16 15 15 14 14 13 13 14 14 14 14 13 13 12
17 17 18 18 19 20 19 18 18 17 17 16 16 16 16 15 15 15 15 15 15 14 14 14 14 15 15 15 15 14 14 14 14 13 14 13 14 14 14 13 13 13 12
16 16 17 17 16 17 18 16 16 16 15 15 15 14 13 13 13 13 13 13 13 14 14 14 14 14 14 14 14 14 14 14 14 15 15 14 14 14 14 14 13 13 13
16 16 15 17 16 15 15 15 15 14 15 14 14 14 14 13 13 13 13 13 13 13 13 13 14 13 13 13 13 13 13 13 13 13 14 14 13 14 13 13 14 13 13
15 15 14 15 15 15 14 14 14 14 14 14 14 13 14 14 14 14 14 13 13 13 13 13 13 13 13 13 13 13 13 13 13 13 13 13 13 13 13 14 14 14 14

GFSGL_850_temp_063.txt.gz
Temp
23 23 22 22 22 22 22 22 22 22 21 20 21 21 21 21 20 20 20 20 20 20 20 20 20 20 21 20 20 20 20 20 20 22 21 21 21 21 21 21 20 20 19
24 23 23 23 23 22 22 22 22 22 22 21 21 21 21 21 21 21 20 20 20 20 21 20 21 21 21 21 21 21 20 20 20 21 22 22 21 21 20 20 20 20 20
24 24 23 23 23 23 22 22 22 22 22 22 21 21 21 21 21 21 21 21 21 21 21 21 22 21 21 21 21 21 21 21 20 20 21 21 21 20 20 20 20 20 20
24 24 24 23 23 23 23 23 23 23 22 22 22 22 21 21 21 21 21 21 21 21 21 21 22 22 22 22 22 22 21 21 21 20 20 21 21 21 20 20 20 20 20
24 24 25 24 24 24 24 23 23 23 23 23 23 23 22 22 22 22 21 22 21 22 22 22 22 22 22 22 22 22 22 21 21 20 20 20 20 20 20 20 20 20 20
25 26 26 25 24 24 24 24 24 24 24 23 24 24 23 23 23 23 22 22 22 21 22 22 22 22 22 22 22 22 22 21 21 20 20 20 21 20 20 20 19 19 18
26 26 26 25 25 25 25 24 24 24 24 24 24 24 24 24 24 24 23 23 22 22 22 22 22 22 22 22 22 22 22 21 21 20 20 20 21 21 20 19 20 18 18
25 26 26 26 26 25 25 25 25 25 25 25 24 24 24 24 25 24 24 23 22 22 22 22 22 22 22 22 22 21 22 22 21 20 20 20 19 19 19 19 18 17 16
26 26 27 27 27 26 26 26 26 25 25 25 25 25 24 25 25 24 24 23 23 23 23 22 22 23 23 21 21 21 21 20 20 20 19 19 19 19 18 18 17 16 16
27 28 27 27 26 27 27 27 27 26 25 25 25 25 25 25 25 24 23 23 23 23 23 23 23 22 22 21 20 20 19 18 19 19 19 19 19 19 19 19 19 17 16
27 26 26 26 26 26 26 26 26 26 25 25 25 25 25 25 25 24 24 23 23 22 23 23 22 22 22 21 20 19 19 19 20 19 19 19 19 18 19 19 18 17 17
26 26 26 26 26 26 26 26 25 25 24 24 24 24 24 24 24 24 24 23 23 22 23 22 22 21 21 20 20 20 20 19 19 19 19 19 18 19 19 19 17 17 16
25 25 24 24 25 25 25 25 25 25 25 24 24 24 24 24 23 23 23 23 22 22 22 22 21 21 20 20 19 20 19 19 19 19 19 18 18 19 18 17 17 16 15
25 25 25 25 24 24 25 25 25 25 25 25 24 24 24 23 23 23 22 22 22 21 21 21 21 20 20 19 19 19 20 19 19 19 18 18 18 18 17 17 15 15 14
24 24 24 25 24 24 24 24 24 24 25 25 25 25 24 23 23 22 21 21 20 21 21 20 20 20 19 20 20 19 19 19 18 18 18 18 17 16 16 15 15 14 14
22 23 23 23 23 23 24 24 24 24 24 24 24 24 24 23 22 21 21 20 20 20 20 20 20 20 20 20 19 19 19 18 18 17 17 17 16 15 15 15 14 14 14
23 24 24 24 23 23 22 23 23 23 23 23 23 23 22 22 21 21 21 21 20 20 20 20 20 20 20 20 20 19 18 17 18 18 17 15 15 15 14 14 14 13 13
22 22 22 22 22 22 22 22 22 22 22 22 22 22 22 21 21 21 21 20 20 20 21 21 21 20 20 19 19 19 18 18 17 17 16 15 15 14 13 14 14 13 13
21 21 22 22 22 21 21 21 21 21 21 21 21 21 21 21 21 21 21 21 21 21 20 20 20 20 19 19 19 18 18 17 17 16 15 15 15 14 13 13 13 13 13
20 21 21 21 22 21 20 20 20 20 21 20 20 21 21 21 21 21 21 20 20 20 20 19 19 19 18 18 18 17 17 16 16 16 15 14 14 14 14 14 13 14 13
20 20 21 21 21 22 20 20 20 20 20 21 20 21 21 21 20 20 19 18 18 18 18 18 18 18 18 17 17 16 16 16 16 15 15 13 13 14 13 13 13 13 13
19 20 20 20 20 21 21 21 21 21 21 21 20 19 18 19 20 19 18 17 17 17 17 17 16 16 16 16 16 16 16 16 16 15 14 14 13 13 13 13 13 13 12
18 19 19 19 20 20 20 20 20 20 20 19 19 18 17 16 16 16 16 16 16 15 15 15 14 14 15 15 15 15 15 15 15 14 14 14 14 14 13 13 12 12 12
17 17 16 16 16 18 18 19 19 18 18 17 16 16 15 15 16 16 15 14 14 13 13 13 13 13 14 14 14 14 14 15 14 15 14 14 14 14 13 13 13 13 13
16 16 16 15 16 16 17 17 17 16 16 15 15 14 14 14 14 13 12 13 12 13 13 13 13 13 13 13 13 14 14 14 14 14 14 14 14 14 13 13 13 13 13
14 15 15 15 15 15 16 15 15 15 14 13 14 14 13 13 13 13 12 12 12 12 13 13 13 13 13 13 13 13 13 13 13 13 13 13 13 13 13 13 14 13 13

GFSGL_850_temp_069.txt.gz
Temp
22 22 22 22 22 22 21 21 21 21 20 20 21 21 21 20 20 20 20 20 20 19 19 19 19 20 20 20 20 20 20 20 20 21 22 23 23 23 22 22 22 21 21
23 23 23 23 22 22 22 22 22 21 21 21 21 21 21 21 21 20 20 20 20 20 20 20 20 20 20 20 20 20 20 21 21 22 23 22 23 23 22 22 21 21 21
23 23 23 23 23 23 23 22 22 22 21 21 21 21 22 22 21 21 21 21 20 20 20 20 21 20 21 21 21 21 21 21 21 21 22 22 22 23 22 23 22 22 22
24 24 24 24 23 23 23 23 23 23 22 21 21 22 22 22 22 22 21 21 21 21 21 21 21 21 22 22 21 21 21 21 21 21 20 19 20 21 21 21 21 21 20
24 24 24 24 24 24 24 23 23 23 23 22 22 22 22 22 22 23 22 22 22 22 22 22 22 22 22 22 21 21 21 21 21 19 19 19 19 19 18 18 18 19 20
24 24 24 25 25 24 24 24 24 24 23 23 22 22 22 22 23 23 23 23 23 22 23 23 22 22 22 22 22 22 21 21 21 21 20 19 20 18 18 18 18 18 18
24 25 25 25 25 25 24 24 24 24 24 23 23 23 23 23 23 23 23 23 23 23 23 23 23 23 23 23 23 23 22 22 21 22 21 21 20 19 19 19 18 18 18
24 25 25 25 25 25 24 24 24 24 24 24 23 23 23 24 24 24 23 23 23 23 23 24 23 24 23 24 24 23 23 23 23 23 22 22 20 20 19 19 18 18 18
24 25 26 27 26 25 24 25 25 24 24 24 24 24 24 24 24 24 23 23 23 23 24 24 24 24 24 24 23 23 23 23 22 23 22 21 20 20 20 19 19 19 18
26 26 26 26 26 25 25 25 26 25 25 25 25 25 25 25 25 24 24 23 23 23 24 24 24 24 24 24 23 23 22 22 21 21 19 20 20 20 19 19 19 18 18
25 25 26 26 26 27 27 26 26 25 25 25 25 25 25 25 25 24 24 22 23 23 23 23 24 24 24 23 22 22 22 21 20 19 19 19 20 20 20 19 19 18 17
25 25 25 26 25 25 26 25 25 25 24 24 24 24 24 25 25 25 24 24 24 23 23 23 23 23 23 22 21 21 21 20 19 19 19 19 20 20 19 18 18 17 16
24 25 25 25 25 25 25 25 24 23 23 24 24 24 24 25 25 25 25 24 23 23 23 23 22 22 22 21 21 20 19 19 19 19 20 20 20 19 19 19 18 18 15
23 24 24 24 24 24 24 24 24 23 23 22 21 22 24 24 25 25 25 24 24 23 22 22 22 21 21 20 19 19 19 19 19 20 20 20 19 19 19 18 18 17 16
21 21 22 22 23 23 23 24 24 23 22 22 22 22 23 24 25 25 24 24 24 24 22 21 21 21 20 19 19 19 19 19 19 19 20 19 19 18 18 18 18 17 16
19 19 18 19 25 23 22 23 23 24 24 23 23 23 24 24 24 24 23 23 23 22 21 21 21 19 19 19 19 19 19 19 20 20 19 19 18 18 18 18 17 15 14
18 20 21 21 20 20 22 23 23 23 24 24 24 24 25 24 24 23 22 22 21 21 21 20 20 20 20 20 20 19 19 19 20 19 19 18 18 18 18 17 15 14 13
18 19 20 19 20 21 22 23 23 23 24 24 24 24 24 24 23 22 21 20 20 20 20 20 20 20 20 20 20 20 20 20 20 19 19 18 18 18 17 16 14 14 13
18 18 18 18 18 20 21 22 22 22 22 22 22 22 23 23 23 22 21 20 20 20 21 21 21 21 21 20 20 20 19 19 19 18 18 18 18 17 16 14 14 14 13
19 19 19 20 20 21 21 22 22 23 24 24 23 22 21 21 21 21 21 21 20 20 20 21 21 21 21 20 20 19 19 19 18 18 18 17 17 16 14 13 13 13 13
19 20 20 20 21 21 21 22 22 23 23 23 23 22 21 20 20 20 21 21 20 20 20 21 21 21 20 20 20 19 18 18 17 17 17 17 16 16 13 13 12 12 13
18 19 19 20 20 21 21 21 21 22 23 23 23 22 20 19 19 19 20 20 20 20 20 20 20 20 19 19 18 18 18 17 17 16 16 16 16 14 13 13 13 12 12
16 17 18 19 19 20 20 21 20 19 22 22 22 22 20 19 19 19 19 19 19 20 20 20 19 19 19 18 18 17 17 17 16 16 16 16 15 13 13 13 12 12 12
14 15 16 17 16 15 14 15 16 17 18 20 21 20 19 18 18 18 18 18 18 18 17 17 18 18 17 16 16 17 16 15 15 16 15 15 14 14 13 13 13 12 12
10 11 11 14 13 13 13 13 14 14 16 18 18 18 17 17 17 17 17 17 17 16 15 15 15 15 15 15 15 15 15 15 15 15 15 14 13 12 12 12 12 12 12
9 10 11 11 12 13 12 13 13 14 15 16 15 15 16 16 16 15 15 16 14 14 14 14 14 13 13 13 13 14 14 13 13 13 13 13 12 12 12 12 12 12 12

GFSGL_850_temp_072.txt.gz
Temp
20 21 21 21 21 21 21 21 21 21 21 21 20 21 20 19 20 20 20 19 19 19 19 19 18 19 19 20 20 19 20 20 20 21 22 22 21 23 23 23 22 22 21
20 21 22 22 22 20 21 21 21 21 21 21 21 21 21 19 19 20 20 20 19 19 19 19 19 19 19 20 19 19 20 20 20 20 20 21 21 20 21 22 22 22 21
20 20 20 21 21 21 22 22 22 22 22 22 21 21 21 21 19 20 21 20 19 19 19 19 19 19 19 19 19 20 21 20 20 20 21 21 21 21 20 20 19 19 19
21 21 20 22 23 23 23 23 23 22 22 22 22 22 22 22 22 21 20 21 21 19 19 19 19 19 19 19 19 19 19 19 20 20 21 21 22 22 21 20 21 21 21
22 22 21 24 23 23 23 23 23 23 23 23 22 22 22 22 21 23 22 21 21 22 20 20 20 21 21 21 20 20 20 20 21 22 22 22 23 23 22 21 21 21 21
22 21 21 23 24 24 24 23 23 23 23 23 23 23 22 22 21 23 23 21 22 22 22 22 22 22 23 23 22 22 22 21 21 20 21 22 21 21 21 21 21 21 20
21 22 22 24 24 24 24 24 24 24 24 23 23 23 23 23 23 24 24 23 22 22 23 23 23 21 21 23 24 24 23 23 22 22 22 22 22 20 19 19 19 19 19
21 21 23 24 25 24 24 24 24 24 24 24 24 24 23 23 24 24 24 23 23 23 23 23 24 24 24 23 23 23 24 24 24 24 24 24 23 20 19 19 19 19 19
20 22 23 24 24 23 24 24 25 24 24 24 24 24 24 24 24 25 24 23 23 24 24 24 24 24 25 25 24 24 24 24 23 23 23 22 21 21 20 19 19 19 18
21 23 24 24 25 25 25 24 25 24 25 24 24 24 24 25 25 25 24 23 23 23 24 25 25 25 25 25 24 24 24 24 23 22 20 19 20 20 21 20 19 19 19
21 20 20 21 24 25 25 25 25 25 24 24 22 24 25 25 25 25 25 24 23 21 21 22 22 25 26 25 25 24 24 23 22 21 19 19 19 19 19 19 19 19 18
21 20 20 22 22 21 23 24 23 23 24 22 23 22 22 25 25 25 25 24 24 23 23 22 22 22 24 25 24 23 23 22 21 19 18 19 19 19 20 19 19 19 18
20 20 20 20 20 21 23 23 22 23 21 21 21 21 21 22 24 26 25 25 24 23 23 21 21 21 23 24 23 22 22 21 20 19 19 19 19 19 19 19 19 19 18
19 19 19 19 20 21 20 21 20 21 21 22 22 22 23 23 23 22 25 25 24 24 24 24 23 23 21 21 22 22 21 20 19 19 19 19 19 19 19 19 19 18 18
19 20 20 20 20 20 20 21 21 22 22 22 23 23 23 23 23 23 23 22 24 25 24 23 22 22 22 22 22 21 20 19 20 20 20 20 20 19 19 19 18 18 16
19 19 20 21 20 21 21 21 21 21 21 21 22 23 23 23 23 22 23 23 22 23 23 21 20 22 22 21 21 20 20 20 20 20 20 20 20 19 19 18 17 17 15
18 18 19 20 20 20 21 21 21 21 21 21 21 21 22 22 22 22 23 23 23 22 22 20 21 22 20 20 20 20 20 20 20 20 20 20 19 19 19 17 15 15 15
15 16 18 18 20 21 22 20 20 20 23 21 22 23 23 23 23 22 23 22 22 22 22 22 22 21 20 19 19 20 21 20 20 19 20 19 19 18 18 16 15 15 14
14 15 16 17 18 20 24 28 24 20 21 21 22 22 23 23 23 23 23 23 20 20 20 20 19 19 20 20 19 20 21 20 20 19 19 19 19 17 16 15 15 15 14
15 17 18 17 18 18 20 20 20 20 20 20 22 23 22 24 24 23 23 22 21 20 20 21 21 20 19 20 20 21 21 20 20 19 19 18 18 16 16 14 14 14 14
14 15 17 17 18 19 19 20 21 22 22 22 21 21 21 21 20 21 21 20 21 20 19 20 21 20 19 18 20 21 21 21 19 19 18 17 17 16 16 16 14 13 13
13 14 15 16 17 18 19 19 20 21 22 22 21 20 24 24 24 22 20 19 19 19 19 19 19 20 19 18 19 20 20 20 19 18 17 17 16 16 15 14 14 13 13
12 11 12 13 14 15 17 18 19 20 21 22 21 21 20 20 21 22 20 20 19 19 18 19 18 18 18 19 19 19 19 18 17 17 16 15 16 16 14 14 13 13 13
12 12 12 10 12 14 16 18 19 19 19 20 20 20 19 18 16 18 19 18 18 18 17 18 19 17 17 18 17 18 16 15 15 15 15 14 14 15 13 13 12 13 13
9 9 10 10 11 12 15 16 17 17 16 17 17 17 16 17 17 17 16 17 17 17 17 17 17 15 17 16 15 15 15 15 16 14 14 13 13 13 13 12 13 13 13
7 8 8 9 10 10 11 12 12 13 13 13 14 14 15 14 14 15 16 15 15 16 16 16 17 16 15 15 16 16 15 15 14 14 13 13 14 13 13 12 13 13 13

GFSGL_850_temp_075.txt.gz
Temp
19 20 20 21 22 22 20 20 20 20 20 20 20 19 19 19 19 19 19 20 20 19 20 20 20 19 20 21 22 21 21 21 22 22 23 23 22 22 22 21 21 20 19
20 19 20 21 21 21 21 20 20 20 20 20 20 19 19 19 19 19 19 20 19 20 20 20 20 20 20 20 20 21 21 21 21 21 21 21 21 22 22 21 21 20 20
20 20 20 20 20 21 21 21 21 21 21 22 21 20 20 20 20 19 19 19 20 20 20 20 20 20 20 20 21 21 22 22 21 21 21 22 22 22 22 22 22 22 21
22 21 20 19 20 20 21 22 22 22 22 22 22 21 21 20 20 20 20 19 20 20 20 20 20 20 20 20 20 20 20 20 21 21 21 22 23 23 24 23 23 23 23
23 22 21 20 20 20 21 21 22 22 22 22 22 22 22 20 20 21 21 20 20 20 20 20 20 20 20 20 20 21 21 21 21 22 23 23 24 24 23 22 22 22 22
24 23 22 21 20 20 21 21 21 22 22 23 23 22 22 21 22 21 21 22 21 21 21 22 22 21 21 22 22 22 22 22 22 21 21 22 22 21 22 21 21 20 20
24 23 22 21 20 20 21 22 22 23 23 23 23 23 23 23 22 22 22 22 21 22 23 23 22 22 22 22 23 24 24 24 23 23 23 23 23 22 21 20 19 20 19
23 23 22 22 21 21 21 22 22 23 23 23 24 23 23 23 23 23 23 22 22 23 23 23 24 24 24 23 22 22 23 23 24 24 23 23 22 20 19 19 19 19 19
23 23 22 22 21 20 22 23 22 23 23 24 24 24 24 24 24 24 24 23 23 23 24 24 24 24 25 25 24 24 24 24 23 22 22 21 21 20 19 19 19 19 19
22 22 22 21 21 20 21 23 24 23 24 23 23 24 24 24 24 24 24 24 22 22 24 25 25 25 26 26 25 24 24 24 24 23 22 21 20 20 19 19 19 20 19
23 22 22 21 21 20 20 21 22 24 22 23 22 22 22 23 24 25 24 24 23 22 22 22 23 24 24 25 25 24 25 24 23 22 20 20 19 20 20 20 20 20 19
23 22 21 21 21 21 20 20 20 21 21 21 22 21 21 23 24 25 25 25 25 25 24 24 24 24 23 23 23 23 23 23 22 21 20 20 19 19 19 19 20 19 19
22 22 21 20 20 21 21 20 20 20 21 20 21 21 22 23 22 25 26 26 25 25 25 23 23 23 23 22 22 22 22 23 22 21 19 19 19 19 20 20 19 19 19
21 21 21 20 20 20 21 20 21 21 21 22 22 23 23 23 24 23 23 24 25 25 25 24 24 23 22 22 22 22 22 22 21 19 19 19 19 20 19 19 19 19 19
21 21 21 21 20 20 22 22 21 22 23 22 24 24 24 24 24 25 24 24 24 25 25 24 24 23 23 22 20 20 19 20 20 20 19 19 19 19 20 19 19 18 17
20 20 21 22 21 21 21 22 22 23 23 23 24 24 25 25 25 25 24 24 23 22 22 22 21 21 21 21 20 21 20 19 20 20 20 20 20 20 20 19 19 18 17
18 20 21 22 23 22 22 23 22 22 22 22 23 23 23 23 24 23 23 23 22 22 21 21 21 22 22 20 21 20 20 21 20 20 19 20 20 20 19 19 18 17 17
16 19 20 22 23 23 24 23 24 22 22 22 22 22 23 23 22 22 22 22 22 22 21 21 21 21 19 19 20 21 21 21 20 20 20 20 20 20 19 19 18 17 17
14 15 16 19 20 22 22 22 22 21 21 21 23 23 24 24 23 23 22 21 20 21 22 21 21 21 20 20 20 21 21 21 20 20 21 21 20 19 19 18 18 17 17
14 13 15 16 17 18 19 20 19 21 23 23 21 23 24 24 23 24 24 23 23 22 22 23 23 23 23 22 21 21 20 20 20 21 21 21 19 19 19 18 17 17 16
13 13 14 16 17 18 19 20 21 21 23 24 25 23 23 23 23 22 22 22 22 21 20 21 22 23 23 22 20 19 20 19 18 20 21 21 19 19 18 17 17 16 16
11 13 14 14 16 17 18 18 20 20 22 24 24 23 23 22 23 21 22 23 23 21 20 21 21 21 21 21 21 20 19 18 17 20 20 20 19 18 18 17 18 18 16
12 11 13 14 15 15 16 19 21 22 23 24 24 24 23 22 21 21 21 20 21 21 21 20 20 20 20 20 20 19 19 19 18 18 18 18 18 17 17 17 18 18 17
14 11 9 10 12 13 16 18 20 21 21 22 22 23 22 22 21 20 17 18 17 18 19 18 18 19 18 18 18 17 18 18 17 17 16 16 17 17 17 17 16 15 15
9 9 9 10 14 14 14 15 16 17 16 16 18 19 18 18 18 17 17 17 17 17 17 17 17 17 17 17 17 17 17 17 17 18 17 16 16 15 15 16 14 14 14
6 6 7 8 8 10 12 13 14 14 14 14 14 14 14 14 14 14 14 14 14 15 15 16 16 16 17 17 16 16 17 17 16 16 15 15 14 14 14 14 13 13 13